Grand Marais, MN

1:54 AM CDT on June 26, 2017 (GMT -0500)
Grand Marais

Weather History for KGNA - December, 2012

Change the Weather History Date:

Tuesday, December 11, 2012

  Actual Average (KCKC) Record (KCKC)
Temperature  
Mean Temperature 21 °F -  
Max Temperature 28 °F 24 °F 37 °F (1998)
Min Temperature 12 °F 12 °F -18 °F (2013)
Degree Days  
Heating Degree Days 44    
Moisture  
Dew Point 12 °F    
Average Humidity 73    
Maximum Humidity 85    
Minimum Humidity 60    
Precipitation  
Precipitation 0.05 in - - ()
Sea Level Pressure  
Sea Level Pressure 29.84 in    
Wind  
Wind Speed 7 mph (West)    
Max Wind Speed 21 mph    
Max Gust Speed 26 mph    
Averages and records for this station are not official NWS values.
T = Trace of Precipitation, MM = Missing Value Source: NWS Daily Summary

Daily Weather History Graph

Daily Weather History Graph

Search for Another Location

Airport or City:

Trip Planner

Search our weather history database for the weather conditions in past years. The results will help you decide how hot, cold, wet, or windy it might be!

Date:

Astronomy

Dec. 11, 2012 Rise Set
Actual Time 7:40 AM CST 4:09 PM CST
Civil Twilight 7:04 AM CST 4:45 PM CST
Nautical Twilight 6:25 AM CST 5:24 PM CST
Astronomical Twilight 5:47 AM CST 6:02 PM CST
Moon 5:31 AM CST (12/11) 2:51 PM CST (12/11)
Length of Visible Light 9h 40m
Length of Day
8h 28m
Waning Crescent, 4% of the Moon is Illuminated
Dec 11
Waning Crescent
Dec 13
New
Dec 19
First Quarter
Dec 28
Full
Jan 4
Last Quarter

Hourly Weather History & Observations

Time (CST) Temp. Windchill Dew Point Humidity Pressure Visibility Wind Dir Wind Speed Gust Speed Precip Events Conditions
12:56 AM 24.1 °F - 19.0 °F 81% 29.82 in - Calm Calm - N/A   Unknown
1:56 AM 28.9 °F 15.8 °F 21.9 °F 75% 29.81 in - SW 20.7 mph 26.5 mph N/A   Unknown
2:56 AM 27.0 °F 14.7 °F 21.9 °F 81% 29.81 in - WSW 16.1 mph 25.3 mph N/A   Unknown
3:56 AM 21.9 °F 14.5 °F 16.0 °F 78% 29.81 in - West 5.8 mph - N/A   Unknown
4:56 AM 19.9 °F 13.4 °F 14.0 °F 78% 29.81 in - WNW 4.6 mph - N/A   Unknown
5:56 AM 19.0 °F 11.1 °F 10.9 °F 71% 29.80 in - WNW 5.8 mph - N/A   Unknown
6:56 AM 19.9 °F 12.1 °F 14.0 °F 78% 29.79 in - WNW 5.8 mph - N/A   Unknown
7:56 AM 19.9 °F 13.4 °F 15.1 °F 81% 29.78 in - WNW 4.6 mph - N/A   Unknown
8:56 AM 21.0 °F 16.2 °F 17.1 °F 85% 29.76 in - West 3.5 mph - 0.02 in   Unknown
9:56 AM 21.9 °F 14.5 °F 17.1 °F 82% 29.76 in - West 5.8 mph 16.1 mph 0.02 in   Unknown
10:56 AM 21.0 °F 13.4 °F 15.1 °F 78% 29.75 in - West 5.8 mph - 0.01 in   Unknown
11:56 AM 23.0 °F 13.9 °F 15.1 °F 72% 29.74 in - SW 8.1 mph - N/A   Unknown
12:56 PM 24.1 °F 18.2 °F 12.0 °F 60% 29.75 in - Variable 4.6 mph - N/A   Unknown
1:56 PM 21.9 °F 12.5 °F 10.0 °F 60% 29.76 in - WNW 8.1 mph - N/A   Unknown
2:56 PM 19.9 °F 12.1 °F 8.1 °F 60% 29.79 in - Variable 5.8 mph - N/A   Unknown
3:56 PM 17.1 °F 10.0 °F 7.0 °F 65% 29.84 in - Variable 4.6 mph - N/A   Unknown
4:56 PM 14.0 °F 6.5 °F 6.1 °F 71% 29.87 in - West 4.6 mph - N/A   Unknown
5:56 PM 17.1 °F 8.7 °F 9.0 °F 71% 29.89 in - West 5.8 mph - N/A   Unknown
6:56 PM 18.0 °F 9.8 °F 9.0 °F 68% 29.91 in - West 5.8 mph - N/A   Unknown
7:56 PM 17.1 °F 11.7 °F 8.1 °F 68% 29.93 in - West 3.5 mph - N/A   Unknown
8:56 PM 17.1 °F 8.7 °F 8.1 °F 68% 29.96 in - West 5.8 mph - N/A   Unknown
9:56 PM 16.0 °F 6.3 °F 8.1 °F 71% 29.99 in - West 6.9 mph - N/A   Unknown
10:56 PM 14.0 °F 5.1 °F 6.1 °F 71% 30.01 in - West 5.8 mph - N/A   Unknown
11:56 PM 12.0 °F 5.9 °F 3.9 °F 70% 30.03 in - West 3.5 mph - N/A   Unknown